TimeMDT,TemperatureF,Dew PointF,Humidity,Sea Level PressureIn,VisibilityMPH,Wind Direction,Wind SpeedMPH,Gust SpeedMPH,PrecipitationIn,Events,Conditions,WindDirDegrees,DateUTC
12:53 AM,24.8,19.4,80,30.14,10.0,SSE,5.8,-,N/A,,Clear,150,2012-11-03 06:53:00
1:53 AM,23.0,19.0,85,30.20,10.0,Calm,Calm,-,N/A,,Clear,0,2012-11-03 07:53:00
2:53 AM,21.9,19.0,89,30.19,10.0,SSE,4.6,-,N/A,,Clear,160,2012-11-03 08:53:00
3:53 AM,21.9,19.0,89,30.20,10.0,Calm,Calm,-,N/A,,Clear,0,2012-11-03 09:53:00
4:53 AM,21.9,18.0,85,30.20,10.0,Calm,Calm,-,N/A,,Clear,0,2012-11-03 10:53:00
5:53 AM,23.0,19.0,85,30.21,10.0,Calm,Calm,-,N/A,,Mostly Cloudy,0,2012-11-03 11:53:00
6:53 AM,23.0,19.0,85,30.23,10.0,WNW,3.5,-,N/A,,Partly Cloudy,300,2012-11-03 12:53:00
7:53 AM,24.1,19.9,84,30.25,10.0,Calm,Calm,-,N/A,,Overcast,0,2012-11-03 13:53:00
8:53 AM,25.0,21.0,85,30.27,10.0,Calm,Calm,-,N/A,,Clear,0,2012-11-03 14:53:00
9:53 AM,27.0,21.9,81,30.29,10.0,Calm,Calm,-,N/A,,Clear,0,2012-11-03 15:53:00
10:53 AM,30.9,24.1,76,30.27,10.0,Calm,Calm,-,N/A,,Clear,0,2012-11-03 16:53:00
11:53 AM,37.0,26.1,65,30.25,10.0,Calm,Calm,-,N/A,,Partly Cloudy,0,2012-11-03 17:53:00
12:53 PM,48.0,25.0,41,30.19,10.0,NE,3.5,-,N/A,,Clear,40,2012-11-03 18:53:00
1:53 PM,52.0,23.0,32,30.16,10.0,NE,4.6,-,N/A,,Clear,40,2012-11-03 19:53:00
2:53 PM,53.1,21.9,30,30.14,10.0,Variable,3.5,-,N/A,,Clear,0,2012-11-03 20:53:00
3:53 PM,54.0,24.1,31,30.14,10.0,SW,6.9,-,N/A,,Clear,230,2012-11-03 21:53:00
4:53 PM,53.1,25.0,34,30.15,10.0,Variable,5.8,-,N/A,,Clear,0,2012-11-03 22:53:00
5:53 PM,52.0,28.0,40,30.15,10.0,SW,5.8,-,N/A,,Mostly Cloudy,230,2012-11-03 23:53:00
6:53 PM,52.0,30.0,43,30.16,10.0,Variable,4.6,-,N/A,,Overcast,0,2012-11-04 00:53:00
7:53 PM,51.1,30.0,44,30.17,10.0,West,12.7,-,N/A,,Overcast,270,2012-11-04 01:53:00
8:53 PM,48.0,30.0,50,30.19,10.0,Calm,Calm,-,N/A,,Mostly Cloudy,0,2012-11-04 02:53:00
9:53 PM,46.0,30.9,56,30.21,10.0,North,8.1,-,N/A,,Scattered Clouds,10,2012-11-04 03:53:00
10:53 PM,48.0,30.9,52,30.17,10.0,Calm,Calm,-,N/A,,Overcast,0,2012-11-04 04:53:00
11:53 PM,48.9,32.0,52,30.16,10.0,West,10.4,-,N/A,,Mostly Cloudy,260,2012-11-04 05:53:00